Home > Weather > Ede > Past weeks

Flag for Netherlands Weather for the Past 2 Weeks in Ede, Netherlands

Now
52 °F

Passing clouds.


Feels Like: 49 °F
Forecast: 53 / 76 °F
Wind: 8 mph from East

Location: Deelen

Current Time: May 6, 2016 at 7:39:11 AM

Latest Report: May 6, 2016 at 6:55 AM


Visibility: N/A

Pressure: 30.01 "Hg

Humidity: 72%

Dew Point: 43 °F

Location of EdeLocation

Historic Weather in Ede — Graph

°F

Ede Temperature Yesterday

Maximum temperature yesterday: 66 °F (at 4:25 PM)
Minimum temperature yesterday: 43 °F (at 6:25 AM)
Average temperature yesterday: 56 °F

High & Low Weather Summary for the Past Weeks

 TemperatureHumidityPressure
High66 °F (May 5, 4:25 PM)100% (Apr 23, 11:25 PM)30.39 "Hg (Apr 23, 11:25 PM)
Low32 °F (Apr 24, 2:55 AM)28% (May 5, 2:55 PM)29.45 "Hg (Apr 26, 5:55 AM)
Average46 °F73%30.02 "Hg
* Reported Apr 21 6:25 AM — May 6 6:25 AM, Ede, Weather by CustomWeather, © 2016

Note: Actual official high and low records may vary slightly from our data, if they occured in-between our weather recording intervals... More about our weather records

Advertising

Ede Weather History for the Previous 24 Hours

Scroll right to see more
 ConditionsComfort  
Time TempWeatherWind HumidityBarometerVisibility
6:25 AM
Fri, May 6
50 °FCool.7 mph76%30.04 "HgN/A
5:55 AM50 °FCool.7 mph76%30.04 "HgN/A
5:25 AM52 °FCool.8 mph72%30.04 "HgN/A
4:55 AM52 °FCool.7 mph72%30.04 "HgN/A
4:25 AM52 °FPassing clouds.7 mph72%30.04 "HgN/A
3:55 AM52 °FPassing clouds.8 mph72%30.04 "HgN/A
3:25 AM52 °FPassing clouds.7 mph72%30.04 "HgN/A
2:55 AM54 °FPassing clouds.8 mph67%30.07 "HgN/A
2:25 AM54 °FPassing clouds.7 mph67%30.07 "HgN/A
1:55 AM54 °FPassing clouds.7 mph67%30.07 "HgN/A
1:25 AM54 °FPassing clouds.7 mph67%30.07 "HgN/A
12:55 AM55 °FPassing clouds.8 mph59%30.07 "HgN/A
12:25 AM55 °FRefreshingly cool.8 mph59%30.07 "HgN/A
11:55 PM
Thu, May 5
57 °FPassing clouds.7 mph55%30.07 "HgN/A
11:25 PM57 °FPassing clouds.6 mph59%30.09 "HgN/A
10:55 PM57 °FPassing clouds.7 mph55%30.09 "HgN/A
10:25 PM57 °FPassing clouds.7 mph59%30.09 "HgN/A
9:55 PM57 °FRefreshingly cool.6 mph59%30.09 "HgN/A
9:25 PM59 °FPassing clouds.7 mph55%30.09 "HgN/A
8:55 PM61 °FRefreshingly cool.7 mph52%30.09 "HgN/A
8:25 PM63 °FMild.8 mph49%30.09 "HgN/A
7:55 PM64 °FMild.8 mph43%30.12 "HgN/A
7:25 PM66 °FPassing clouds.9 mph40%30.12 "HgN/A
6:55 PM66 °FMild.10 mph40%30.12 "HgN/A
6:25 PM66 °FMild.9 mph40%30.12 "HgN/A
5:55 PM66 °FMild.9 mph35%30.15 "HgN/A
5:25 PM66 °FMild.9 mph35%30.15 "HgN/A
4:55 PM66 °FPassing clouds.10 mph32%30.18 "HgN/A
4:25 PM66 °FMild.9 mph32%30.18 "HgN/A
3:55 PM64 °FPassing clouds.8 mph34%30.18 "HgN/A
3:25 PM64 °FMild.10 mph32%30.21 "HgN/A
2:55 PM64 °FPassing clouds.9 mph28%30.21 "HgN/A
2:25 PM64 °FMild.16 mph30%30.21 "HgN/A
1:55 PM63 °FMild.13 mph30%30.24 "HgN/A
1:25 PM63 °FMild.14 mph34%30.24 "HgN/A
12:55 PM61 °FRefreshingly cool.13 mph34%30.27 "HgN/A
12:25 PM61 °FRefreshingly cool.13 mph34%30.27 "HgN/A
11:55 AM61 °FPassing clouds.10 mph31%30.27 "HgN/A
11:25 AM61 °FPassing clouds.10 mph39%30.27 "HgN/A
10:55 AM59 °FRefreshingly cool.12 mph45%30.30 "HgN/A
10:25 AM59 °FPassing clouds.12 mph45%30.30 "HgN/A
9:55 AM55 °FPassing clouds.13 mph47%30.30 "HgN/A
9:25 AM54 °FCool.12 mph47%30.30 "HgN/A
8:55 AM52 °FPassing clouds.10 mph54%30.30 "HgN/A
8:25 AM52 °FPassing clouds.9 mph50%30.30 "HgN/A
7:55 AM48 °FCool.6 mph62%30.30 "HgN/A
7:25 AM46 °FPassing clouds.6 mph62%30.30 "HgN/A
Weather by CustomWeather, © 2016

See weather overviewHow to use our weather pages